Weather History for KHMS - November, 2012

Change the Weather History Date:

Monday, November 5, 2012

  Actual Average Record
Temperature  
Mean Temperature 55 °F -  
Max Temperature 65 °F 51 °F 65 °F (2012)
Min Temperature 45 °F 32 °F 18 °F (2003)
Degree Days  
Heating Degree Days 10    
Growing Degree Days 5 (Base 50)    
Moisture  
Dew Point 47 °F    
Average Humidity 72    
Maximum Humidity 97    
Minimum Humidity 42    
Precipitation  
Precipitation 0.00 in - - ()
Sea Level Pressure  
Sea Level Pressure 30.21 in    
Wind  
Wind Speed 7 mph (NW)    
Max Wind Speed 12 mph    
Max Gust Speed -    
Visibility 15 miles    
Events      
Averages and records for this station are not official NWS values.
T = Trace of Precipitation, MM = Missing Value Source: NWS Daily Summary

Daily Weather History Graph

Daily Weather History Graph

Search for Another Location

Airport or City:

Trip Planner

Search our weather history database for the weather conditions in past years. The results will help you decide how hot, cold, wet, or windy it might be!

Date:

Astronomy

Nov. 05, 2012 Rise Set
Actual Time 6:46 AM PST 4:36 PM PST
Civil Twilight 6:14 AM PST 5:08 PM PST
Nautical Twilight 5:38 AM PST 5:44 PM PST
Astronomical Twilight 5:03 AM PST 6:19 PM PST
Moon 10:19 PM PST (11/5) 12:09 PM PST (11/5)
Length of Visible Light 10h 53m
Length of Day
9h 49m
Waning Gibbous, 62% of the Moon is Illuminated
Nov 5
Waning Gibbous
Nov 6
Last Quarter
Nov 13
New
Nov 20
First Quarter
Nov 28
Full

Hourly Weather History & Observations

Time (PST) Temp. Windchill Dew Point Humidity Pressure Visibility Wind Dir Wind Speed Gust Speed Precip Events Conditions
12:50 AM 52.0 °F - 50.0 °F 93% 30.21 in 15.0 mi North 6.9 mph - N/A   Overcast
1:50 AM 59.2 °F - 53.2 °F 81% 30.21 in 15.0 mi West 11.5 mph - N/A   Mostly Cloudy
2:50 AM 55.8 °F - 51.3 °F 85% 30.19 in 15.0 mi SE 4.6 mph - N/A   Overcast
3:50 AM 52.2 °F - 50.0 °F 92% 30.18 in 15.0 mi North 4.6 mph - N/A   Mostly Cloudy
4:50 AM 49.6 °F - 48.9 °F 97% 30.17 in 15.0 mi NNE 4.6 mph - N/A   Mostly Cloudy
5:50 AM 52.9 °F - 50.4 °F 91% 30.17 in 15.0 mi NW 6.9 mph - N/A   Overcast
6:50 AM 52.5 °F - 49.8 °F 91% 30.19 in 15.0 mi NW 4.6 mph - N/A   Overcast
7:50 AM 57.0 °F - 52.5 °F 85% 30.21 in 15.0 mi ESE 3.5 mph - N/A   Overcast
8:50 AM 59.5 °F - 50.7 °F 73% 30.23 in 15.0 mi NW 6.9 mph - N/A   Overcast
9:50 AM 61.3 °F - 49.8 °F 66% 30.25 in 15.0 mi West 8.1 mph - N/A   Overcast
10:50 AM 62.2 °F - 51.1 °F 67% 30.26 in 15.0 mi NNE 6.9 mph - N/A   Overcast
11:50 AM 63.3 °F - 46.6 °F 54% 30.26 in 15.0 mi NW 11.5 mph - N/A   Overcast
12:50 PM 64.8 °F - 43.5 °F 46% 30.25 in 15.0 mi WNW 11.5 mph - N/A   Overcast
1:50 PM 65.7 °F - 41.7 °F 42% 30.24 in 15.0 mi WNW 6.9 mph - N/A   Overcast
2:50 PM 64.6 °F - 41.4 °F 43% 30.24 in 15.0 mi NW 5.8 mph - N/A   Overcast
3:50 PM 63.1 °F - 41.5 °F 45% 30.22 in 15.0 mi NW 9.2 mph - N/A   Overcast
4:50 PM 57.4 °F - 40.8 °F 54% 30.22 in 15.0 mi North 4.6 mph - N/A   Overcast
5:50 PM 50.7 °F - 42.1 °F 72% 30.22 in 15.0 mi West 3.5 mph - N/A   Overcast
6:50 PM 52.5 °F - 42.1 °F 68% 30.20 in 15.0 mi SW 4.6 mph - N/A   Overcast
10:50 PM 45.1 °F 42.0 °F 41.2 °F 86% 30.17 in 15.0 mi NW 5.8 mph - N/A   Overcast
11:50 PM 45.3 °F 43.0 °F 41.0 °F 85% 30.17 in 15.0 mi West 4.6 mph - N/A   Overcast